• en France
  • Liste des pays
  • À 7 jours
  • Température de l'eau
  • Carte satellitaire
  • Carte météo
  • Widgets météo
  • user-avatar
    Se connecter

    Météo par heure à La-Plata

    Ce jour, 16 Novembre, Vendredi

    Heure Température Précipitation Vent Pression Humidité
    00:00 +13°C° 0.2 mm 6 m/s 763 mmHg 68%
    01:00 +11°C° 0.2 mm 6 m/s 763 mmHg 64%
    02:00 +12°C° 0.2 mm 5 m/s 764 mmHg 60%
    03:00 +10°C° 0.2 mm 5 m/s 764 mmHg 60%
    04:00 +10°C° 0.2 mm 5 m/s 764 mmHg 59%
    05:00 +10°C° 0.2 mm 4 m/s 764 mmHg 59%
    06:00 +12°C° 0 mm 4 m/s 764 mmHg 57%
    07:00 +13°C° 0 mm 4 m/s 764 mmHg 56%
    08:00 +14°C° 0 mm 5 m/s 765 mmHg 54%
    09:00 +17°C° 0 mm 4 m/s 764 mmHg 53%
    10:00 +18°C° 0 mm 4 m/s 764 mmHg 52%
    11:00 +19°C° 0 mm 4 m/s 764 mmHg 51%
    12:00 +20°C° 0 mm 5 m/s 763 mmHg 52%
    13:00 +20°C° 0 mm 5 m/s 762 mmHg 54%
    14:00 +21°C° 0 mm 6 m/s 762 mmHg 56%
    15:00 +20°C° 0 mm 6 m/s 761 mmHg 59%
    16:00 +20°C° 0 mm 6 m/s 761 mmHg 63%
    17:00 +20°C° 0 mm 6 m/s 760 mmHg 67%
    18:00 +19°C° 0 mm 6 m/s 760 mmHg 68%
    19:00 +19°C° 0 mm 6 m/s 760 mmHg 70%
    20:00 +17°C° 0 mm 7 m/s 760 mmHg 72%
    21:00 +17°C° 0 mm 7 m/s 760 mmHg 75%
    22:00 +17°C° 0 mm 7 m/s 760 mmHg 79%
    23:00 +18°C° 0 mm 7 m/s 759 mmHg 83%

    Demain, 17 Novembre, Samedi

    Heure Température Précipitation Vent Pression Humidité
    00:00 +17°C° 0 mm 7 m/s 759 mmHg 81%
    01:00 +17°C° 0 mm 7 m/s 758 mmHg 79%
    02:00 +17°C° 0 mm 7 m/s 757 mmHg 78%
    03:00 +17°C° 0 mm 7 m/s 757 mmHg 78%
    04:00 +17°C° 0 mm 7 m/s 756 mmHg 78%
    05:00 +17°C° 0 mm 7 m/s 756 mmHg 78%
    06:00 +17°C° 0 mm 7 m/s 755 mmHg 78%
    07:00 +18°C° 0 mm 7 m/s 755 mmHg 78%
    08:00 +20°C° 0 mm 7 m/s 754 mmHg 78%
    09:00 +22°C° 0 mm 7 m/s 754 mmHg 74%
    10:00 +23°C° 0 mm 6 m/s 754 mmHg 71%
    11:00 +26°C° 0 mm 6 m/s 754 mmHg 67%
    12:00 +25°C° 1 mm 5 m/s 753 mmHg 72%
    13:00 +22°C° 1 mm 5 m/s 753 mmHg 77%
    14:00 +21°C° 1 mm 4 m/s 753 mmHg 81%
    15:00 +22°C° 0 mm 4 m/s 753 mmHg 77%
    16:00 +23°C° 0 mm 5 m/s 753 mmHg 73%
    17:00 +23°C° 0 mm 5 m/s 753 mmHg 69%
    18:00 +22°C° 0 mm 6 m/s 754 mmHg 68%
    19:00 +20°C° 0 mm 6 m/s 755 mmHg 68%
    20:00 +19°C° 0 mm 6 m/s 755 mmHg 68%
    21:00 +17°C° 0 mm 6 m/s 756 mmHg 66%
    22:00 +16°C° 0 mm 6 m/s 757 mmHg 65%
    23:00 +15°C° 0 mm 7 m/s 758 mmHg 63%

    Après-demain, 18 Novembre, Dimanche

    Heure Température Précipitation Vent Pression Humidité
    00:00 +14°C° 0 mm 6 m/s 758 mmHg 65%
    01:00 +13°C° 0 mm 5 m/s 758 mmHg 66%
    02:00 +12°C° 0 mm 5 m/s 758 mmHg 67%
    03:00 +10°C° 0 mm 5 m/s 759 mmHg 66%
    04:00 +10°C° 0 mm 6 m/s 759 mmHg 65%
    05:00 +10°C° 0 mm 6 m/s 759 mmHg 63%
    06:00 +13°C° 0 mm 6 m/s 759 mmHg 59%
    07:00 +15°C° 0 mm 6 m/s 759 mmHg 55%
    08:00 +17°C° 0 mm 6 m/s 760 mmHg 50%
    09:00 +19°C° 0 mm 5 m/s 760 mmHg 48%
    10:00 +21°C° 0 mm 5 m/s 761 mmHg 45%
    11:00 +22°C° 0 mm 4 m/s 761 mmHg 42%
    12:00 +22°C° 0 mm 4 m/s 761 mmHg 42%
    13:00 +24°C° 0 mm 3 m/s 761 mmHg 42%
    14:00 +24°C° 0 mm 3 m/s 761 mmHg 42%
    15:00 +24°C° 0 mm 3 m/s 761 mmHg 47%
    16:00 +24°C° 0 mm 2 m/s 761 mmHg 51%
    17:00 +23°C° 0 mm 2 m/s 760 mmHg 56%
    18:00 +21°C° 0 mm 2 m/s 761 mmHg 57%
    19:00 +20°C° 0 mm 1 m/s 761 mmHg 58%
    20:00 +19°C° 0 mm 1 m/s 761 mmHg 59%
    21:00 +17°C° 0 mm 2 m/s 761 mmHg 59%
    22:00 +17°C° 0 mm 2 m/s 761 mmHg 59%
    23:00 +17°C° 0 mm 3 m/s 762 mmHg 59%

    19 Novembre, Lundi

    Heure Température Précipitation Vent Pression Humidité
    00:00 +17°C° 0 mm 4 m/s 761 mmHg 59%
    01:00 +17°C° 0 mm 4 m/s 761 mmHg 60%
    02:00 +16°C° 0 mm 5 m/s 760 mmHg 60%
    03:00 +15°C° 0 mm 5 m/s 761 mmHg 62%
    04:00 +15°C° 0 mm 5 m/s 761 mmHg 63%
    05:00 +15°C° 0 mm 5 m/s 761 mmHg 65%
    06:00 +17°C° 0 mm 6 m/s 761 mmHg 63%
    07:00 +19°C° 0 mm 6 m/s 761 mmHg 61%
    08:00 +21°C° 0 mm 6 m/s 761 mmHg 59%
    09:00 +23°C° 0 mm 6 m/s 761 mmHg 55%
    10:00 +24°C° 0 mm 6 m/s 761 mmHg 51%
    11:00 +27°C° 0 mm 6 m/s 760 mmHg 47%
    12:00 +27°C° 0 mm 6 m/s 760 mmHg 46%
    13:00 +28°C° 0 mm 5 m/s 759 mmHg 45%
    14:00 +28°C° 0 mm 5 m/s 759 mmHg 43%
    15:00 +28°C° 0 mm 5 m/s 758 mmHg 47%
    16:00 +27°C° 0 mm 5 m/s 758 mmHg 51%
    17:00 +27°C° 0 mm 4 m/s 758 mmHg 55%
    18:00 +25°C° 0 mm 5 m/s 758 mmHg 57%
    19:00 +23°C° 0 mm 5 m/s 758 mmHg 59%
    20:00 +22°C° 0 mm 5 m/s 759 mmHg 61%
    21:00 +22°C° 0 mm 5 m/s 759 mmHg 62%
    22:00 +21°C° 0 mm 5 m/s 759 mmHg 63%
    23:00 +21°C° 0 mm 5 m/s 760 mmHg 64%

    20 Novembre, Mardi

    Heure Température Précipitation Vent Pression Humidité
    00:00 +20°C° 0 mm 5 m/s 760 mmHg 65%
    01:00 +20°C° 0 mm 5 m/s 759 mmHg 66%
    02:00 +20°C° 0 mm 5 m/s 759 mmHg 68%
    03:00 +19°C° 0 mm 5 m/s 760 mmHg 70%
    04:00 +19°C° 0 mm 5 m/s 760 mmHg 73%
    05:00 +17°C° 0 mm 5 m/s 760 mmHg 75%
    06:00 +20°C° 0 mm 5 m/s 761 mmHg 70%
    07:00 +22°C° 0 mm 5 m/s 761 mmHg 66%
    08:00 +23°C° 0 mm 6 m/s 761 mmHg 61%
    09:00 +26°C° 0 mm 5 m/s 761 mmHg 56%
    10:00 +27°C° 0 mm 5 m/s 761 mmHg 51%
    11:00 +29°C° 0 mm 5 m/s 760 mmHg 46%
    12:00 +30°C° 0 mm 5 m/s 760 mmHg 45%
    13:00 +30°C° 0 mm 4 m/s 759 mmHg 43%
    14:00 +32°C° 0 mm 4 m/s 759 mmHg 41%
    15:00 +30°C° 0 mm 4 m/s 759 mmHg 45%
    16:00 +30°C° 0 mm 4 m/s 759 mmHg 49%
    17:00 +29°C° 0 mm 3 m/s 758 mmHg 53%
    18:00 +28°C° 0 mm 4 m/s 759 mmHg 56%
    19:00 +26°C° 0 mm 4 m/s 759 mmHg 59%
    20:00 +25°C° 0 mm 4 m/s 759 mmHg 61%
    21:00 +23°C° 0 mm 5 m/s 759 mmHg 64%
    22:00 +23°C° 0 mm 5 m/s 759 mmHg 67%
    23:00 +22°C° 0 mm 5 m/s 759 mmHg 69%

    21 Novembre, Mercredi

    Heure Température Précipitation Vent Pression Humidité
    00:00 +22°C° 0 mm 5 m/s 759 mmHg 71%
    01:00 +22°C° 0 mm 5 m/s 759 mmHg 72%
    02:00 +21°C° 0 mm 5 m/s 759 mmHg 74%
    03:00 +21°C° 0 mm 5 m/s 759 mmHg 75%
    04:00 +21°C° 0 mm 5 m/s 759 mmHg 75%
    05:00 +20°C° 0 mm 5 m/s 759 mmHg 76%
    06:00 +22°C° 0 mm 6 m/s 759 mmHg 72%
    07:00 +23°C° 0 mm 6 m/s 759 mmHg 68%
    08:00 +26°C° 0 mm 6 m/s 759 mmHg 64%
    09:00 +27°C° 0 mm 6 m/s 759 mmHg 60%
    10:00 +29°C° 0 mm 5 m/s 758 mmHg 56%
    11:00 +30°C° 0 mm 5 m/s 758 mmHg 52%
    12:00 +32°C° 0 mm 5 m/s 757 mmHg 50%
    13:00 +33°C° 0 mm 5 m/s 757 mmHg 48%
    14:00 +33°C° 0 mm 5 m/s 756 mmHg 45%
    15:00 +33°C° 0 mm 5 m/s 756 mmHg 48%
    16:00 +32°C° 0 mm 5 m/s 755 mmHg 51%
    17:00 +30°C° 0 mm 5 m/s 755 mmHg 54%
    18:00 +29°C° 0 mm 5 m/s 755 mmHg 56%
    19:00 +28°C° 0 mm 5 m/s 755 mmHg 58%
    20:00 +26°C° 0 mm 5 m/s 756 mmHg 60%
    21:00 +26°C° 0 mm 5 m/s 756 mmHg 62%
    22:00 +25°C° 0 mm 5 m/s 756 mmHg 65%
    23:00 +25°C° 0 mm 5 m/s 756 mmHg 67%
    Voir plus